CPA364 VHHH-ZSPD

Flight info

Callsign CPA364
Flight time 1h 56m
Altitude 37100
Route LEKEN V601 DOTMI/K0919S1130 A470 LJG B221 SHZ W58 BK BK81A
Aircraft A359/H-SDE2E3GHIJ1J3J4J5LM1ORWXY/LB1D1

Departure

Time 2026-05-05 19:56
Airport Hong Kong International Airport (VHHH)

Arrival

Time 2026-05-05 21:52
Airport Shanghai Pudong International Airport (ZSPD)
Time Latitude Longitude Altitude Speed Heading
2026-05-05 19:08 22.31436 113.92275 43 ft 0 kts 46°
2026-05-05 19:42 22.31431 113.92269 43 ft 2 kts 44°
2026-05-05 19:43 22.31423 113.92261 42 ft 2 kts 41°
2026-05-05 19:43 22.31405 113.92248 42 ft 2 kts 25°
2026-05-05 19:43 22.31395 113.92243 41 ft 2 kts
2026-05-05 19:43 22.31379 113.92245 39 ft 2 kts 336°
2026-05-05 19:44 22.31365 113.92254 40 ft 2 kts 321°
2026-05-05 19:44 22.31351 113.92272 40 ft 2 kts 295°
2026-05-05 19:44 22.31346 113.92283 39 ft 2 kts 296°
2026-05-05 19:44 22.31339 113.92299 40 ft 2 kts 295°
2026-05-05 19:45 22.31336 113.92305 40 ft 0 kts 295°
2026-05-05 19:48 22.31350 113.92274 40 ft 10 kts 296°
2026-05-05 19:48 22.31389 113.92188 39 ft 5 kts 295°
2026-05-05 19:49 22.31407 113.92148 43 ft 7 kts 295°
2026-05-05 19:49 22.31434 113.92093 43 ft 9 kts 308°
2026-05-05 19:49 22.31496 113.92065 43 ft 11 kts 343°
2026-05-05 19:49 22.31569 113.92039 43 ft 9 kts 341°
2026-05-05 19:50 22.31610 113.91988 43 ft 10 kts 277°
2026-05-05 19:50 22.31593 113.91909 43 ft 12 kts 251°
2026-05-05 19:50 22.31563 113.91815 43 ft 14 kts 250°
2026-05-05 19:50 22.31527 113.91705 43 ft 16 kts 250°
2026-05-05 19:51 22.31484 113.91571 44 ft 23 kts 251°
2026-05-05 19:51 22.31425 113.91389 44 ft 27 kts 251°
2026-05-05 19:51 22.31361 113.91192 44 ft 28 kts 250°
2026-05-05 19:51 22.31296 113.90991 43 ft 30 kts 251°
2026-05-05 19:52 22.31237 113.90808 43 ft 26 kts 251°
2026-05-05 19:52 22.31177 113.90621 43 ft 27 kts 251°
2026-05-05 19:52 22.31117 113.90436 43 ft 25 kts 250°
2026-05-05 19:52 22.31057 113.90250 43 ft 27 kts 251°
2026-05-05 19:53 22.30995 113.90057 43 ft 28 kts 250°
2026-05-05 19:53 22.30942 113.89894 43 ft 14 kts 251°
2026-05-05 19:53 22.30936 113.89823 43 ft 9 kts 295°
2026-05-05 19:53 22.30995 113.89790 43 ft 11 kts 339°
2026-05-05 19:54 22.31071 113.89775 43 ft 11 kts 19°
2026-05-05 19:54 22.31107 113.89837 43 ft 10 kts 72°
2026-05-05 19:54 22.31112 113.89851 43 ft 0 kts 70°
2026-05-05 19:55 22.31163 113.90010 43 ft 56 kts 71°
2026-05-05 19:55 22.31367 113.90642 42 ft 120 kts 71°
2026-05-05 19:56 22.31705 113.91682 90 ft 170 kts 72°
2026-05-05 19:56 22.32085 113.92874 836 ft 165 kts 73°
2026-05-05 19:56 22.32456 113.94044 1604 ft 168 kts 72°
2026-05-05 19:56 22.32860 113.95296 2056 ft 189 kts 72°
2026-05-05 19:57 22.33295 113.96732 2408 ft 210 kts 77°
2026-05-05 19:57 22.33602 113.98287 3104 ft 213 kts 82°
2026-05-05 19:57 22.33865 113.99896 3688 ft 223 kts 82°
2026-05-05 19:57 22.34133 114.01569 4317 ft 228 kts 82°
2026-05-05 19:58 22.34354 114.03290 4947 ft 235 kts 88°
2026-05-05 19:58 22.34172 114.05039 5632 ft 236 kts 109°
2026-05-05 19:58 22.33420 114.06594 6365 ft 235 kts 131°
2026-05-05 19:58 22.32208 114.07781 6978 ft 241 kts 149°
2026-05-05 19:59 22.30649 114.08554 7465 ft 253 kts 167°
2026-05-05 19:59 22.28894 114.08807 8159 ft 256 kts 181°
2026-05-05 19:59 22.27059 114.08789 8694 ft 273 kts 184°
2026-05-05 19:59 22.25119 114.08736 9306 ft 284 kts 184°
2026-05-05 20:00 22.23127 114.08697 10072 ft 288 kts 184°
2026-05-05 20:00 22.21065 114.08664 10528 ft 306 kts 184°
2026-05-05 20:00 22.18862 114.08713 10805 ft 329 kts 177°
2026-05-05 20:00 22.16603 114.09469 11038 ft 355 kts 153°
2026-05-05 20:01 22.14679 114.11251 11322 ft 378 kts 130°
2026-05-05 20:01 22.13353 114.13734 11800 ft 388 kts 117°
2026-05-05 20:01 22.12196 114.16391 12351 ft 393 kts 117°
2026-05-05 20:01 22.11007 114.19069 12895 ft 398 kts 118°
2026-05-05 20:02 22.09793 114.21724 13429 ft 402 kts 119°
2026-05-05 20:02 22.08510 114.24420 13945 ft 405 kts 122°
2026-05-05 20:02 22.06778 114.26846 14398 ft 403 kts 140°
2026-05-05 20:02 22.04622 114.28718 14895 ft 404 kts 147°
2026-05-05 20:03 22.02338 114.30506 15348 ft 408 kts 147°
2026-05-05 20:03 22.00030 114.32309 15794 ft 412 kts 146°
2026-05-05 20:03 21.97927 114.34439 16217 ft 420 kts 130°
2026-05-05 20:03 21.96490 114.37196 16682 ft 427 kts 111°
2026-05-05 20:04 21.95919 114.40335 17138 ft 431 kts 92°
2026-05-05 20:04 21.96003 114.43570 17619 ft 433 kts 86°
2026-05-05 20:04 21.96193 114.46818 18060 ft 436 kts 86°
2026-05-05 20:04 21.96362 114.50094 18455 ft 439 kts 86°
2026-05-05 20:05 21.96340 114.53391 18832 ft 443 kts 96°
2026-05-05 20:05 21.95804 114.56664 19225 ft 445 kts 102°
2026-05-05 20:05 21.95112 114.59922 19610 ft 448 kts 103°
2026-05-05 20:05 21.94401 114.63201 20005 ft 451 kts 103°
2026-05-05 20:06 21.93687 114.66500 20390 ft 454 kts 103°
2026-05-05 20:06 21.92972 114.69819 20802 ft 457 kts 103°
2026-05-05 20:06 21.92254 114.73159 21187 ft 459 kts 103°
2026-05-05 20:06 21.91531 114.76522 21592 ft 462 kts 103°
2026-05-05 20:07 21.90804 114.79903 22009 ft 465 kts 103°
2026-05-05 20:07 21.90070 114.83314 22410 ft 469 kts 103°
2026-05-05 20:07 21.89332 114.86746 22817 ft 472 kts 103°
2026-05-05 20:07 21.88652 114.90211 23218 ft 475 kts 98°
2026-05-05 20:08 21.88397 114.93755 23611 ft 477 kts 90°
2026-05-05 20:08 21.88401 114.97336 23940 ft 479 kts 87°
2026-05-05 20:08 21.88516 115.00936 24287 ft 482 kts 86°
2026-05-05 20:08 21.88676 115.04546 24654 ft 485 kts 86°
2026-05-05 20:09 21.88841 115.08184 25032 ft 488 kts 86°
2026-05-05 20:09 21.88994 115.11841 25434 ft 491 kts 86°
2026-05-05 20:09 21.89132 115.15523 25845 ft 494 kts 86°
2026-05-05 20:09 21.89258 115.19228 26270 ft 497 kts 86°
2026-05-05 20:10 21.89375 115.22958 26671 ft 500 kts 86°
2026-05-05 20:10 21.89489 115.26716 27080 ft 504 kts 86°
2026-05-05 20:10 21.89600 115.30443 27484 ft 507 kts 86°
2026-05-05 20:10 21.89712 115.34253 27888 ft 510 kts 86°
2026-05-05 20:11 21.89825 115.38080 28279 ft 514 kts 86°
2026-05-05 20:11 21.89940 115.41993 28675 ft 517 kts 86°
2026-05-05 20:11 21.90052 115.45819 29076 ft 520 kts 86°
2026-05-05 20:11 21.90167 115.49774 29457 ft 524 kts 86°
2026-05-05 20:12 21.90280 115.53656 29825 ft 527 kts 86°
2026-05-05 20:12 21.90393 115.57606 30152 ft 530 kts 86°
2026-05-05 20:12 21.90591 115.61576 30416 ft 532 kts 81°
2026-05-05 20:12 21.91182 115.65502 30685 ft 533 kts 76°
2026-05-05 20:13 21.91909 115.69424 30962 ft 535 kts 75°
2026-05-05 20:13 21.92690 115.73353 31204 ft 538 kts 75°
2026-05-05 20:13 21.93511 115.77353 31459 ft 541 kts 75°
2026-05-05 20:13 21.94320 115.81264 31699 ft 544 kts 75°
2026-05-05 20:14 21.95143 115.85258 31953 ft 547 kts 75°
2026-05-05 20:14 21.95964 115.89266 32186 ft 549 kts 75°
2026-05-05 20:14 21.96779 115.93284 32524 ft 549 kts 75°
2026-05-05 20:14 21.97591 115.97306 32859 ft 550 kts 75°
2026-05-05 20:15 21.98402 116.01337 33178 ft 551 kts 75°
2026-05-05 20:15 21.99218 116.05369 33488 ft 551 kts 75°
2026-05-05 20:15 22.00328 116.09309 33778 ft 548 kts 65°
2026-05-05 20:15 22.01973 116.12991 34067 ft 543 kts 55°
2026-05-05 20:16 22.04147 116.16271 34357 ft 534 kts 44°
2026-05-05 20:16 22.06773 116.19040 34722 ft 523 kts 33°
2026-05-05 20:16 22.09742 116.21233 35074 ft 512 kts 23°
2026-05-05 20:16 22.12944 116.22815 35414 ft 501 kts 13°
2026-05-05 20:17 22.16270 116.23781 35745 ft 491 kts
2026-05-05 20:17 22.19630 116.24145 36066 ft 481 kts 354°
2026-05-05 20:17 22.22933 116.23937 36377 ft 472 kts 346°
2026-05-05 20:17 22.26110 116.23192 36677 ft 464 kts 338°
2026-05-05 20:18 22.29100 116.21953 36960 ft 457 kts 330°
2026-05-05 20:18 22.31951 116.20437 37068 ft 458 kts 331°
2026-05-05 20:18 22.34922 116.19160 37056 ft 461 kts 337°
2026-05-05 20:19 22.41294 116.17870 37069 ft 472 kts 350°
2026-05-05 20:19 22.47869 116.17526 37064 ft 475 kts 352°
2026-05-05 20:20 22.54432 116.17355 37067 ft 475 kts 353°
2026-05-05 20:20 22.61081 116.17179 37067 ft 474 kts 352°
2026-05-05 20:21 22.67659 116.17302 37073 ft 482 kts
2026-05-05 20:21 22.74185 116.19345 37077 ft 499 kts 19°
2026-05-05 20:22 22.80091 116.23504 37077 ft 511 kts 30°
2026-05-05 20:22 22.85732 116.28211 37079 ft 513 kts 32°
2026-05-05 20:23 22.91351 116.32973 37081 ft 513 kts 31°
2026-05-05 20:23 22.96992 116.37704 37083 ft 512 kts 31°
2026-05-05 20:24 23.02660 116.42391 37083 ft 512 kts 31°
2026-05-05 20:24 23.08332 116.47064 37086 ft 512 kts 31°
2026-05-05 20:25 23.13996 116.51742 37082 ft 511 kts 31°
2026-05-05 20:25 23.19654 116.56428 37087 ft 511 kts 31°
2026-05-05 20:26 23.25306 116.61116 37088 ft 511 kts 31°
2026-05-05 20:26 23.30918 116.65776 37085 ft 511 kts 31°
2026-05-05 20:27 23.36564 116.70468 37085 ft 510 kts 31°
2026-05-05 20:27 23.42200 116.75165 37086 ft 511 kts 31°
2026-05-05 20:28 23.47424 116.80512 37086 ft 517 kts 39°
2026-05-05 20:28 23.52434 116.86148 37089 ft 518 kts 40°
2026-05-05 20:29 23.57406 116.91828 37089 ft 518 kts 40°
2026-05-05 20:29 23.62380 116.97507 37089 ft 518 kts 40°
2026-05-05 20:30 23.67359 117.03179 37094 ft 517 kts 40°
2026-05-05 20:30 23.72339 117.08851 37095 ft 517 kts 40°
2026-05-05 20:31 23.77313 117.14521 37095 ft 516 kts 40°
2026-05-05 20:31 23.82542 117.19834 37096 ft 511 kts 34°
2026-05-05 20:32 23.87937 117.24897 37101 ft 512 kts 34°
2026-05-05 20:32 23.92404 117.29146 37105 ft 513 kts 35°
2026-05-05 20:33 23.97736 117.34322 37103 ft 512 kts 35°
2026-05-05 20:33 24.03045 117.39527 37105 ft 512 kts 35°
2026-05-05 20:34 24.08346 117.44732 37105 ft 512 kts 35°
2026-05-05 20:34 24.13611 117.49995 37108 ft 516 kts 40°
2026-05-05 20:35 24.18543 117.55732 37102 ft 518 kts 41°
2026-05-05 20:35 24.23399 117.61557 37097 ft 518 kts 41°
2026-05-05 20:36 24.28240 117.67395 37108 ft 518 kts 41°
2026-05-05 20:36 24.33092 117.73239 37106 ft 518 kts 41°
2026-05-05 20:37 24.37943 117.79080 37109 ft 518 kts 41°
2026-05-05 20:37 24.42791 117.84924 37103 ft 518 kts 41°
2026-05-05 20:38 24.47636 117.90770 37102 ft 517 kts 41°
2026-05-05 20:38 24.52476 117.96618 37100 ft 517 kts 41°
2026-05-05 20:39 24.57314 118.02468 37096 ft 517 kts 41°
2026-05-05 20:39 24.62262 118.08174 37095 ft 515 kts 38°
2026-05-05 20:40 24.67280 118.13785 37098 ft 515 kts 38°
2026-05-05 20:40 24.72285 118.19426 37105 ft 515 kts 39°
2026-05-05 20:41 24.77230 118.25051 37102 ft 515 kts 39°
2026-05-05 20:41 24.82235 118.30763 37113 ft 515 kts 39°
2026-05-05 20:42 24.87164 118.36399 37116 ft 515 kts 39°
2026-05-05 20:42 24.92127 118.42076 37118 ft 514 kts 39°
2026-05-05 20:43 24.97091 118.47764 37107 ft 514 kts 39°
2026-05-05 20:43 25.02050 118.53452 37114 ft 515 kts 39°
2026-05-05 20:44 25.07008 118.59148 37114 ft 515 kts 39°
2026-05-05 20:44 25.11946 118.64868 37113 ft 515 kts 40°
2026-05-05 20:45 25.19192 118.73661 37112 ft 516 kts 41°
2026-05-05 20:45 25.24021 118.79534 37120 ft 516 kts 40°
2026-05-05 20:46 25.28861 118.85396 37114 ft 516 kts 40°
2026-05-05 20:46 25.33702 118.91258 37121 ft 517 kts 40°
2026-05-05 20:47 25.38584 118.97076 37124 ft 515 kts 39°
2026-05-05 20:47 25.43531 119.02804 37126 ft 515 kts 39°
2026-05-05 20:48 25.48472 119.08534 37127 ft 515 kts 39°
2026-05-05 20:48 25.53399 119.14286 37129 ft 515 kts 39°
2026-05-05 20:49 25.58319 119.20052 37131 ft 515 kts 40°
2026-05-05 20:49 25.63238 119.25825 37120 ft 515 kts 40°
2026-05-05 20:50 25.68156 119.31606 37134 ft 515 kts 40°
2026-05-05 20:50 25.73357 119.36959 37134 ft 503 kts 27°
2026-05-05 20:51 25.76324 119.38926 37134 ft 492 kts 18°
2026-05-05 20:51 25.79465 119.40339 37134 ft 485 kts 12°
2026-05-05 20:51 25.85873 119.42627 37132 ft 483 kts
2026-05-05 20:52 25.92265 119.44745 37127 ft 483 kts
2026-05-05 20:52 25.97203 119.46388 37129 ft 483 kts
2026-05-05 20:53 26.03637 119.48559 37132 ft 483 kts 10°
2026-05-05 20:53 26.10053 119.50744 37129 ft 482 kts 10°
2026-05-05 20:54 26.16464 119.52935 37138 ft 482 kts 10°
2026-05-05 20:54 26.22785 119.55569 37138 ft 493 kts 21°
2026-05-05 20:55 26.28733 119.59451 37137 ft 497 kts 25°
2026-05-05 20:55 26.34591 119.63563 37140 ft 498 kts 25°
2026-05-05 20:56 26.40445 119.67709 37140 ft 498 kts 25°
2026-05-05 20:56 26.46303 119.71838 37144 ft 498 kts 25°
2026-05-05 20:57 26.52159 119.75959 37138 ft 497 kts 25°
2026-05-05 20:57 26.58018 119.80067 37141 ft 498 kts 25°
2026-05-05 20:58 26.63884 119.84182 37140 ft 498 kts 25°
2026-05-05 20:58 26.69752 119.88309 37132 ft 498 kts 26°
2026-05-05 20:59 26.75620 119.92445 37139 ft 498 kts 26°
2026-05-05 20:59 26.81483 119.96582 37145 ft 498 kts 26°
2026-05-05 21:00 26.87345 120.00724 37143 ft 498 kts 26°
2026-05-05 21:00 26.93208 120.04875 37150 ft 499 kts 26°
2026-05-05 21:01 26.99033 120.09008 37144 ft 499 kts 26°
2026-05-05 21:01 27.04904 120.13178 37147 ft 500 kts 26°
2026-05-05 21:02 27.10780 120.17356 37150 ft 500 kts 26°
2026-05-05 21:02 27.16672 120.21542 37148 ft 501 kts 26°
2026-05-05 21:03 27.22573 120.25700 37151 ft 501 kts 26°
2026-05-05 21:03 27.28477 120.29863 37149 ft 501 kts 26°
2026-05-05 21:04 27.34373 120.34031 37147 ft 501 kts 27°
2026-05-05 21:04 27.40274 120.38220 37143 ft 501 kts 27°
2026-05-05 21:05 27.46171 120.42415 37145 ft 501 kts 27°
2026-05-05 21:05 27.52065 120.46608 37144 ft 501 kts 27°
2026-05-05 21:06 27.57953 120.50804 37145 ft 501 kts 27°
2026-05-05 21:06 27.63853 120.55014 37141 ft 502 kts 27°
2026-05-05 21:07 27.69754 120.59232 37139 ft 502 kts 28°
2026-05-05 21:07 27.75993 120.62527 37139 ft 490 kts 11°
2026-05-05 21:08 27.82640 120.63771 37136 ft 483 kts
2026-05-05 21:08 27.89328 120.64415 37141 ft 482 kts 360°
2026-05-05 21:09 27.96008 120.64982 37141 ft 481 kts
2026-05-05 21:09 28.02677 120.65575 37144 ft 481 kts
2026-05-05 21:10 28.09339 120.66216 37135 ft 480 kts
2026-05-05 21:10 28.15990 120.66872 37143 ft 480 kts
2026-05-05 21:11 28.22636 120.67527 37144 ft 479 kts
2026-05-05 21:11 28.29222 120.68176 37144 ft 478 kts
2026-05-05 21:12 28.35842 120.68828 37148 ft 477 kts
2026-05-05 21:12 28.42453 120.69479 37152 ft 476 kts
2026-05-05 21:13 28.49050 120.70140 37153 ft 476 kts
2026-05-05 21:13 28.55642 120.70802 37149 ft 475 kts
2026-05-05 21:14 28.62230 120.71464 37150 ft 475 kts
2026-05-05 21:14 28.68809 120.72128 37150 ft 474 kts
2026-05-05 21:15 28.75377 120.72827 37057 ft 472 kts
2026-05-05 21:15 28.78632 120.73187 36563 ft 469 kts
2026-05-05 21:15 28.81871 120.73547 36014 ft 466 kts
2026-05-05 21:16 28.85086 120.73904 35473 ft 463 kts
2026-05-05 21:16 28.88284 120.74258 34916 ft 460 kts
2026-05-05 21:16 28.91467 120.74594 34363 ft 458 kts
2026-05-05 21:16 28.94628 120.74915 33778 ft 455 kts
2026-05-05 21:17 28.97779 120.75232 33045 ft 454 kts
2026-05-05 21:17 29.00925 120.75550 32232 ft 455 kts
2026-05-05 21:17 29.04088 120.75871 31389 ft 457 kts
2026-05-05 21:17 29.07264 120.76196 30539 ft 459 kts
2026-05-05 21:18 29.10452 120.76524 29617 ft 461 kts
2026-05-05 21:18 29.13649 120.76854 28701 ft 461 kts
2026-05-05 21:18 29.16844 120.77185 27948 ft 459 kts
2026-05-05 21:18 29.18945 120.77403 27504 ft 457 kts
2026-05-05 21:19 29.22099 120.77730 26829 ft 453 kts
2026-05-05 21:19 29.25230 120.78055 26144 ft 451 kts
2026-05-05 21:19 29.28343 120.78378 25485 ft 448 kts
2026-05-05 21:19 29.31436 120.78699 24846 ft 445 kts
2026-05-05 21:20 29.34516 120.79018 24198 ft 443 kts
2026-05-05 21:20 29.37577 120.79335 23576 ft 440 kts
2026-05-05 21:20 29.40615 120.79651 22841 ft 437 kts
2026-05-05 21:20 29.43635 120.79966 22147 ft 434 kts
2026-05-05 21:21 29.46624 120.80278 21479 ft 430 kts
2026-05-05 21:21 29.49589 120.80587 20810 ft 426 kts
2026-05-05 21:21 29.52530 120.80930 20139 ft 424 kts
2026-05-05 21:21 29.55409 120.81622 19493 ft 423 kts 14°
2026-05-05 21:22 29.58155 120.82806 18986 ft 422 kts 22°
2026-05-05 21:22 29.60708 120.84509 18755 ft 425 kts 32°
2026-05-05 21:22 29.62987 120.86693 18712 ft 430 kts 42°
2026-05-05 21:22 29.64931 120.89324 18710 ft 433 kts 52°
2026-05-05 21:23 29.66485 120.92301 18709 ft 436 kts 58°
2026-05-05 21:23 29.68030 120.95239 18709 ft 435 kts 55°
2026-05-05 21:23 29.69634 120.98182 18710 ft 435 kts 55°
2026-05-05 21:23 29.71256 121.01114 18710 ft 434 kts 54°
2026-05-05 21:24 29.72892 121.04032 18706 ft 434 kts 54°
2026-05-05 21:24 29.74539 121.06945 18710 ft 434 kts 54°
2026-05-05 21:24 29.76192 121.09852 18710 ft 434 kts 54°
2026-05-05 21:24 29.77846 121.12755 18710 ft 434 kts 54°
2026-05-05 21:25 29.79503 121.15661 18711 ft 434 kts 54°
2026-05-05 21:25 29.81159 121.18564 18716 ft 434 kts 54°
2026-05-05 21:25 29.82817 121.21471 18717 ft 434 kts 54°
2026-05-05 21:25 29.84471 121.24378 18718 ft 434 kts 54°
2026-05-05 21:26 29.86126 121.27286 18722 ft 434 kts 54°
2026-05-05 21:26 29.87788 121.30186 18719 ft 434 kts 53°
2026-05-05 21:26 29.89698 121.32853 18715 ft 430 kts 41°
2026-05-05 21:26 29.92040 121.34946 18677 ft 421 kts 29°
2026-05-05 21:27 29.94550 121.36608 18098 ft 415 kts 26°
2026-05-05 21:27 29.97106 121.38183 17215 ft 417 kts 25°
2026-05-05 21:27 29.99661 121.39753 16529 ft 414 kts 26°
2026-05-05 21:27 30.02189 121.41318 15869 ft 411 kts 26°
2026-05-05 21:28 30.04694 121.42878 15252 ft 408 kts 26°
2026-05-05 21:28 30.07179 121.44430 14901 ft 406 kts 26°
2026-05-05 21:28 30.09666 121.45986 14812 ft 407 kts 26°
2026-05-05 21:28 30.12152 121.47544 14803 ft 406 kts 26°
2026-05-05 21:29 30.14636 121.49102 14803 ft 406 kts 26°
2026-05-05 21:29 30.17114 121.50658 14801 ft 406 kts 26°
2026-05-05 21:29 30.19595 121.52217 14801 ft 406 kts 26°
2026-05-05 21:29 30.22077 121.53777 14801 ft 406 kts 26°
2026-05-05 21:30 30.24557 121.55338 14802 ft 406 kts 26°
2026-05-05 21:30 30.27032 121.56910 14801 ft 406 kts 27°
2026-05-05 21:30 30.29499 121.58508 14802 ft 406 kts 27°
2026-05-05 21:30 30.31961 121.60106 14802 ft 406 kts 27°
2026-05-05 21:31 30.34391 121.61682 14801 ft 406 kts 27°
2026-05-05 21:31 30.36853 121.63278 14803 ft 406 kts 27°
2026-05-05 21:31 30.39329 121.64853 14802 ft 406 kts 26°
2026-05-05 21:31 30.41815 121.66393 14803 ft 406 kts 26°
2026-05-05 21:32 30.44304 121.67936 14802 ft 406 kts 26°
2026-05-05 21:32 30.46789 121.69480 14803 ft 406 kts 26°
2026-05-05 21:32 30.49278 121.71031 14804 ft 406 kts 26°
2026-05-05 21:32 30.51764 121.72584 14806 ft 406 kts 26°
2026-05-05 21:33 30.54232 121.74111 14527 ft 397 kts 25°
2026-05-05 21:33 30.56788 121.75302 13774 ft 396 kts 15°
2026-05-05 21:33 30.59428 121.76199 12994 ft 395 kts 13°
2026-05-05 21:33 30.62070 121.77054 12277 ft 392 kts 13°
2026-05-05 21:34 30.64690 121.77906 11602 ft 389 kts 14°
2026-05-05 21:34 30.67281 121.78755 11078 ft 386 kts 14°
2026-05-05 21:34 30.69864 121.79603 10847 ft 386 kts 14°
2026-05-05 21:34 30.72417 121.80446 10800 ft 372 kts 14°
2026-05-05 21:35 30.74829 121.81247 10816 ft 351 kts 14°
2026-05-05 21:35 30.77112 121.82005 10811 ft 331 kts 14°
2026-05-05 21:35 30.79267 121.82722 10800 ft 314 kts 13°
2026-05-05 21:35 30.81327 121.83406 10663 ft 303 kts 13°
2026-05-05 21:36 30.83333 121.84069 10362 ft 298 kts 13°
2026-05-05 21:36 30.85325 121.84728 9975 ft 298 kts 13°
2026-05-05 21:36 30.87319 121.85386 9546 ft 297 kts 14°
2026-05-05 21:36 30.89298 121.86044 9170 ft 295 kts 14°
2026-05-05 21:37 30.91257 121.86695 8943 ft 292 kts 14°
2026-05-05 21:37 30.93212 121.87345 8899 ft 292 kts 14°
2026-05-05 21:37 30.95175 121.87949 8891 ft 292 kts 11°
2026-05-05 21:37 30.97162 121.88461 8501 ft 295 kts 11°
2026-05-05 21:38 30.99158 121.88968 8173 ft 290 kts 11°
2026-05-05 21:38 31.01118 121.89477 7840 ft 287 kts 12°
2026-05-05 21:38 31.03056 121.89987 7469 ft 285 kts 12°
2026-05-05 21:38 31.04980 121.90498 7109 ft 283 kts 13°
2026-05-05 21:39 31.06888 121.91008 6922 ft 281 kts 13°
2026-05-05 21:39 31.08771 121.91514 6894 ft 281 kts 13°
2026-05-05 21:39 31.10675 121.92026 6917 ft 281 kts 13°
2026-05-05 21:39 31.12583 121.92539 6919 ft 281 kts 13°
2026-05-05 21:40 31.14518 121.92845 6918 ft 282 kts 359°
2026-05-05 21:40 31.16437 121.92432 6922 ft 281 kts 343°
2026-05-05 21:40 31.18297 121.91734 6899 ft 280 kts 341°
2026-05-05 21:40 31.20135 121.91016 6543 ft 278 kts 342°
2026-05-05 21:41 31.21976 121.90303 6110 ft 279 kts 342°
2026-05-05 21:41 31.23803 121.89605 5879 ft 272 kts 342°
2026-05-05 21:41 31.25566 121.88935 5738 ft 261 kts 343°
2026-05-05 21:41 31.27257 121.88294 5614 ft 250 kts 343°
2026-05-05 21:42 31.28882 121.87678 5492 ft 240 kts 343°
2026-05-05 21:42 31.30442 121.87088 5361 ft 231 kts 342°
2026-05-05 21:42 31.31957 121.86515 5146 ft 227 kts 342°
2026-05-05 21:42 31.33452 121.85950 4895 ft 225 kts 342°
2026-05-05 21:43 31.34937 121.85388 4607 ft 224 kts 342°
2026-05-05 21:43 31.36423 121.84828 4294 ft 225 kts 342°
2026-05-05 21:43 31.37917 121.84264 3965 ft 227 kts 342°
2026-05-05 21:43 31.39419 121.83674 3627 ft 229 kts 341°
2026-05-05 21:44 31.40899 121.82980 3301 ft 230 kts 329°
2026-05-05 21:44 31.42011 121.81688 2936 ft 226 kts 294°
2026-05-05 21:44 31.42486 121.79970 2692 ft 220 kts 279°
2026-05-05 21:44 31.42616 121.78209 2364 ft 216 kts 258°
2026-05-05 21:45 31.42081 121.76656 2082 ft 205 kts 227°
2026-05-05 21:45 31.40988 121.75663 2017 ft 195 kts 204°
2026-05-05 21:45 31.39764 121.75017 2008 ft 196 kts 201°
2026-05-05 21:45 31.38506 121.74397 2010 ft 196 kts 201°
2026-05-05 21:46 31.37196 121.73984 2014 ft 196 kts 183°
2026-05-05 21:46 31.35847 121.74146 2016 ft 196 kts 167°
2026-05-05 21:46 31.34565 121.74591 2000 ft 187 kts 163°
2026-05-05 21:46 31.33376 121.75034 2006 ft 172 kts 163°
2026-05-05 21:47 31.32257 121.75459 2063 ft 167 kts 163°
2026-05-05 21:47 31.31146 121.75877 2024 ft 168 kts 164°
2026-05-05 21:47 31.30024 121.76296 2017 ft 170 kts 164°
2026-05-05 21:47 31.28914 121.76711 2009 ft 161 kts 164°
2026-05-05 21:48 31.27891 121.77098 2029 ft 151 kts 164°
2026-05-05 21:48 31.26892 121.77476 2026 ft 151 kts 163°
2026-05-05 21:48 31.25890 121.77857 2021 ft 152 kts 163°
2026-05-05 21:48 31.24890 121.78238 1889 ft 150 kts 163°
2026-05-05 21:49 31.23920 121.78608 1704 ft 143 kts 163°
2026-05-05 21:49 31.22989 121.78961 1499 ft 137 kts 164°
2026-05-05 21:49 31.22108 121.79296 1318 ft 129 kts 164°
2026-05-05 21:49 31.21266 121.79615 1153 ft 126 kts 164°
2026-05-05 21:50 31.20431 121.79931 977 ft 126 kts 164°
2026-05-05 21:50 31.19588 121.80242 811 ft 128 kts 163°
2026-05-05 21:50 31.18738 121.80571 649 ft 129 kts 161°
2026-05-05 21:50 31.17880 121.80908 439 ft 130 kts 162°
2026-05-05 21:51 31.17012 121.81229 300 ft 134 kts 163°
2026-05-05 21:51 31.16129 121.81566 119 ft 134 kts 161°
2026-05-05 21:51 31.15251 121.81907 30 ft 123 kts 162°
2026-05-05 21:51 31.14619 121.82147 27 ft 69 kts 162°
2026-05-05 21:52 31.14212 121.82299 29 ft 23 kts 162°
2026-05-05 21:52 31.14048 121.82312 28 ft 18 kts 189°
2026-05-05 21:52 31.13976 121.82297 29 ft 11 kts 190°
2026-05-05 21:53 31.13893 121.82279 29 ft 13 kts 190°
2026-05-05 21:53 31.13796 121.82263 29 ft 15 kts 182°
2026-05-05 21:53 31.13713 121.82279 29 ft 10 kts 173°
2026-05-05 21:53 31.13667 121.82230 29 ft 10 kts 248°
2026-05-05 21:54 31.13639 121.82136 29 ft 14 kts 251°
2026-05-05 21:54 31.13606 121.82020 28 ft 17 kts 252°
2026-05-05 21:54 31.13568 121.81882 28 ft 19 kts 252°
2026-05-05 21:54 31.13539 121.81772 29 ft 9 kts 260°
2026-05-05 21:55 31.13573 121.81718 29 ft 10 kts 330°
2026-05-05 21:55 31.13644 121.81690 29 ft 12 kts 341°
2026-05-05 21:55 31.13734 121.81655 29 ft 15 kts 342°
2026-05-05 21:55 31.13842 121.81615 29 ft 18 kts 342°
2026-05-05 21:56 31.13971 121.81566 29 ft 24 kts 342°
2026-05-05 21:56 31.14140 121.81502 29 ft 26 kts 342°
2026-05-05 21:56 31.14317 121.81435 29 ft 27 kts 342°
2026-05-05 21:56 31.14454 121.81384 29 ft 15 kts 342°
2026-05-05 21:57 31.14565 121.81342 29 ft 18 kts 342°
2026-05-05 21:57 31.14691 121.81295 29 ft 20 kts 342°
2026-05-05 21:57 31.14801 121.81253 29 ft 11 kts 342°
2026-05-05 21:57 31.14828 121.81197 29 ft 9 kts 269°
2026-05-05 21:58 31.14807 121.81118 29 ft 13 kts 252°
2026-05-05 21:58 31.14829 121.81040 29 ft 12 kts 326°
2026-05-05 21:58 31.14913 121.81004 28 ft 14 kts 342°
2026-05-05 21:58 31.15016 121.80965 28 ft 17 kts 342°
2026-05-05 21:59 31.15135 121.80919 29 ft 15 kts 342°
2026-05-05 21:59 31.15199 121.80895 29 ft 8 kts 342°
2026-05-05 21:59 31.15245 121.80860 29 ft 7 kts 294°
2026-05-05 21:59 31.15231 121.80818 29 ft 4 kts 240°
2026-05-05 22:00 31.15225 121.80800 29 ft 1 kts 252°
2026-05-05 22:00 31.15224 121.80794 29 ft 1 kts 251°
2026-05-05 22:00 31.15222 121.80788 29 ft 1 kts 251°
2026-05-05 22:00 31.15221 121.80785 29 ft 0 kts 251°